Regional Weather Roundup
Issued by NWS Charleston, WV

Home | Current Version | Previous Version | Graphics & Text | Print | Product List | Glossary On
Versions: 1 2 3 4 5 6 7 8 9 10 11 12 13 14 15 16 17 18 19 20 21 22 23 24 25 26 27 28 29 30 31 32 33 34 35 36 37 38 39 40 41 42 43 44 45 46 47 48 49 50
881
ASUS41 KRLX 232110
RWRRLX
West Virginia Regional Weather Roundup
National Weather Service Charleston WV
Issued by National Weather Service Pittsburgh PA
500 PM EDT MON OCT 23 2017

Note: "fair" indicates few or no clouds below 12,000 feet with no
significant weather and/or obstructions to visibility.

WVZ003-232200-
Northern Panhandle of West Virginia

CITY           SKY/WX    TMP DP  RH WIND       PRES   REMARKS
WHEELING       LGT RAIN  61  58  90 SE21G28   29.72F
$$

WVZ009-232200-
Northwest West Virginia

CITY           SKY/WX    TMP DP  RH WIND       PRES   REMARKS
PARKERSBURG    LGT RAIN  58  56  93 SW6       29.81F
$$

WVZ006-232200-
Western West Virginia

CITY           SKY/WX    TMP DP  RH WIND       PRES   REMARKS
HUNTINGTON     LGT RAIN  58  54  86 VRB5      29.67F
$$

WVZ015-232200-
West Central West Virginia

CITY           SKY/WX    TMP DP  RH WIND       PRES   REMARKS
CHARLESTON     LGT RAIN  57  55  93 SE6       29.80F FOG
$$

WVZ031-232200-
North Central West Virginia

CITY           SKY/WX    TMP DP  RH WIND       PRES   REMARKS
CLARKSBURG     LGT RAIN  67  58  72 SE8G18    29.75F
MORGANTOWN     CLOUDY    64  57  78 S8G21     29.78F
$$

WVZ035-042-232200-
South Central West Virginia

CITY           SKY/WX    TMP DP  RH WIND       PRES   REMARKS
BECKLEY        HVY RAIN  53  51  93 NW5       29.84F FOG
BLUEFIELD      HVY RAIN  51  50  96 W7        29.86F FOG
$$

WVZ045-232200-
Greenbrier Valley of West Virginia

CITY           SKY/WX    TMP DP  RH WIND       PRES   REMARKS
LEWISBURG      HVY RAIN  63  62  94 SW3       29.84R
$$

WVZ047-232200-
Northern Mountains of West Virginia

CITY           SKY/WX    TMP DP  RH WIND       PRES   REMARKS
ELKINS         LGT RAIN  65  56  72 VRB6      29.82F
$$

WVZ052-232200-
Eastern Panhandle of West Virginia

CITY           SKY/WX    TMP DP  RH WIND       PRES   REMARKS
MARTINSBURG    CLOUDY    71  59  65 SE10G18   29.93F
PETERSBURG     CLOUDY    66  58  75 SE8       29.88F
$$




USA.gov is the U.S. government's official web portal to all federal, state and local government web resources and services.